Greensboro, NC

1:05 PM EDT on April 26, 2017 (GMT -0400)
Piedmont Triad International

Weather History for KGSO - January, 2012

Change the Weather History Date:

Monday, January 16, 2012

  Actual Average Record
Temperature  
Mean Temperature 37 °F 39 °F  
Max Temperature 48 °F 48 °F 78 °F (1907)
Min Temperature 26 °F 29 °F -1 °F (1972)
Degree Days  
Heating Degree Days 28 26  
Month to date heating degree days 381 416  
Since 1 July heating degree days 1558 1830  
Cooling Degree Days 0 0  
Month to date cooling degree days 0 0  
Year to date cooling degree days 0 0  
Moisture  
Dew Point 24 °F    
Average Humidity 59    
Maximum Humidity 75    
Minimum Humidity 42    
Precipitation  
Precipitation T in 0.10 in 1.02 in (1941)
Month to date precipitation 1.11 1.61  
Year to date precipitation 1.11 1.61  
Snow  
Snow 0.00 in 0.10 in 3.70 in (1965)
Month to date snowfall 0.0 1.7  
Since 1 July snowfall 0.0 2.6  
Snow Depth 0.00 in    
Sea Level Pressure  
Sea Level Pressure 30.46 in    
Wind  
Wind Speed 8 mph (SSW)    
Max Wind Speed 20 mph    
Max Gust Speed 30 mph    
Visibility 10 miles    
Events Rain    
T = Trace of Precipitation, MM = Missing Value Source: NWS Daily Summary

Daily Weather History Graph

Daily Weather History Graph

Search for Another Location

Airport or City:

Trip Planner

Search our weather history database for the weather conditions in past years. The results will help you decide how hot, cold, wet, or windy it might be!

Date:

Astronomy

Jan. 16, 2012 Rise Set
Actual Time 7:29 AM EST 5:29 PM EST
Civil Twilight 7:01 AM EST 5:57 PM EST
Nautical Twilight 6:30 AM EST 6:28 PM EST
Astronomical Twilight 5:59 AM EST 6:59 PM EST
Moon 12:40 AM EST (1/16) 11:39 AM EST (1/16)
Length of Visible Light 10h 55m
Length of Day
9h 59m
Waning Gibbous, 46% of the Moon is Illuminated
Jan 16
Waning Gibbous
Jan 23
New
Jan 30
First Quarter
Feb 7
Full
Feb 14
Last Quarter

Hourly Weather History & Observations

Time (EST) Temp. Windchill Dew Point Humidity Pressure Visibility Wind Dir Wind Speed Gust Speed Precip Events Conditions
12:54 AM 30.0 °F 26.5 °F 17.1 °F 59% 30.52 in 10.0 mi SE 3.5 mph - N/A   Clear
1:54 AM 28.9 °F 23.9 °F 18.0 °F 64% 30.52 in 10.0 mi SSE 4.6 mph - N/A   Clear
2:54 AM 28.0 °F 20.8 °F 19.0 °F 69% 30.52 in 10.0 mi South 6.9 mph - N/A   Clear
3:54 AM 28.0 °F - 18.0 °F 66% 30.52 in 10.0 mi Calm Calm - N/A   Clear
4:54 AM 28.9 °F - 18.0 °F 64% 30.54 in 10.0 mi Calm Calm - N/A   Clear
5:54 AM 28.0 °F - 19.0 °F 69% 30.55 in 10.0 mi Calm Calm - N/A   Clear
6:54 AM 26.1 °F - 19.0 °F 75% 30.56 in 10.0 mi Calm Calm - N/A   Clear
7:54 AM 28.0 °F 24.2 °F 19.0 °F 69% 30.56 in 10.0 mi SSW 3.5 mph - N/A   Clear
8:54 AM 30.0 °F 23.2 °F 21.9 °F 72% 30.57 in 10.0 mi SSW 6.9 mph - N/A   Clear
9:54 AM 33.1 °F 24.9 °F 21.0 °F 61% 30.56 in 10.0 mi South 10.4 mph - N/A   Clear
10:54 AM 37.0 °F 29.8 °F 21.0 °F 52% 30.55 in 10.0 mi SSW 10.4 mph - N/A   Clear
11:54 AM 42.1 °F 34.9 °F 23.0 °F 47% 30.52 in 10.0 mi SSW 13.8 mph 19.6 mph N/A   Clear
12:54 PM 44.1 °F 38.6 °F 24.1 °F 45% 30.47 in 10.0 mi SSW 10.4 mph - N/A   Clear
1:54 PM 46.0 °F 39.9 °F 25.0 °F 44% 30.44 in 10.0 mi SW 13.8 mph 20.7 mph N/A   Scattered Clouds
2:54 PM 45.0 °F 38.9 °F 26.1 °F 48% 30.42 in 10.0 mi SSW 12.7 mph - N/A   Scattered Clouds
3:54 PM 46.9 °F - 26.1 °F 44% 30.41 in 10.0 mi SW 17.3 mph - N/A   Scattered Clouds
4:54 PM 45.0 °F 38.9 °F 27.0 °F 49% 30.40 in 10.0 mi SSW 12.7 mph 29.9 mph N/A   Mostly Cloudy
5:54 PM 44.1 °F 38.6 °F 28.0 °F 53% 30.39 in 10.0 mi SSW 10.4 mph - N/A   Mostly Cloudy
6:54 PM 43.0 °F 37.2 °F 28.9 °F 58% 30.40 in 10.0 mi SSW 10.4 mph - N/A   Mostly Cloudy
7:54 PM 42.1 °F 37.1 °F 30.0 °F 62% 30.37 in 10.0 mi SSW 8.1 mph - 0.00 in Rain Light Rain
8:54 PM 43.0 °F 37.7 °F 28.9 °F 58% 30.36 in 10.0 mi SW 9.2 mph - 0.00 in   Mostly Cloudy
9:54 PM 41.0 °F 36.4 °F 28.9 °F 62% 30.35 in 10.0 mi SW 6.9 mph - N/A   Partly Cloudy
10:54 PM 42.1 °F 36.1 °F 28.9 °F 60% 30.32 in 10.0 mi SW 10.4 mph - N/A   Mostly Cloudy
11:54 PM 43.0 °F 37.7 °F 28.9 °F 58% 30.32 in 10.0 mi SW 9.2 mph - N/A   Mostly Cloudy